Weather History for Manassas, VA

Change the Weather History Date:

Friday, April 4, 2014

  Actual Average Record
Temperature  
Mean Temperature 56 °F -  
Max Temperature 60 °F 60 °F 86 °F (2011)
Min Temperature 51 °F 37 °F 21 °F (2013)
Degree Days  
Heating Degree Days 10    
Growing Degree Days 6 (Base 50)    
Moisture  
Dew Point 47 °F    
Average Humidity 75    
Maximum Humidity 94    
Minimum Humidity 58    
Precipitation  
Precipitation 0.00 in - - ()
Sea Level Pressure  
Sea Level Pressure 29.83 in    
Wind  
Wind Speed 5 mph (East)    
Max Wind Speed 15 mph    
Max Gust Speed -    
Visibility 10 miles    
Events      
Averages and records for this station are not official NWS values.
T = Trace of Precipitation, MM = Missing Value Source: NWS Daily Summary

Daily Weather History Graph

Daily Weather History Graph

Search for Another Location

Airport:

Trip Planner

Search our weather history database for the weather conditions in past years. The results will help you decide how hot, cold, wet, or windy it might be!

Date:

Astronomy

Apr. 04, 2014 Rise Set
Actual Time 6:50 AM EDT 7:36 PM EDT
Civil Twilight 6:23 AM EDT 8:03 PM EDT
Nautical Twilight 5:51 AM EDT 8:35 PM EDT
Astronomical Twilight 5:18 AM EDT 9:08 PM EDT
Moon 10:07 AM EDT (4/4) No Moon Set
Length of Visible Light 13h 40m
Length of Day
12h 46m
Waxing Crescent, 25% of the Moon is Illuminated
Apr 4
Waxing Crescent
Apr 7
First Quarter
Apr 15
Full
Apr 22
Last Quarter
Apr 29
New

Hourly Weather History & Observations

Time (EDT) Temp. Dew Point Humidity Pressure Visibility Wind Dir Wind Speed Gust Speed Precip Events Conditions
12:15 AM 55.4 °F 42.8 °F 63% 29.94 in 10.0 mi ESE 5.8 mph - N/A   Overcast
12:35 AM 55.4 °F 42.8 °F 63% 29.94 in 10.0 mi ESE 5.8 mph - N/A   Overcast
12:55 AM 55.4 °F 42.8 °F 63% 29.94 in 10.0 mi SE 5.8 mph - N/A   Overcast
1:15 AM 53.6 °F 42.8 °F 67% 29.93 in 10.0 mi SE 6.9 mph - N/A   Mostly Cloudy
1:35 AM 53.6 °F 39.2 °F 58% 29.94 in 10.0 mi Calm Calm - N/A   Overcast
1:55 AM 53.6 °F 39.2 °F 58% 29.94 in 10.0 mi SE 8.1 mph - N/A   Overcast
2:15 AM 53.6 °F 39.2 °F 58% 29.93 in 10.0 mi SE 4.6 mph - N/A   Overcast
2:35 AM 53.6 °F 41.0 °F 62% 29.92 in 10.0 mi SE 6.9 mph - N/A   Overcast
2:55 AM 53.6 °F 41.0 °F 62% 29.91 in 10.0 mi ESE 4.6 mph - N/A   Overcast
3:15 AM 53.6 °F 42.8 °F 67% 29.90 in 10.0 mi ESE 6.9 mph - N/A   Overcast
3:35 AM 53.6 °F 42.8 °F 67% 29.89 in 10.0 mi ENE 3.5 mph - N/A   Overcast
3:55 AM 53.6 °F 44.6 °F 72% 29.89 in 10.0 mi East 4.6 mph - N/A   Overcast
4:15 AM 53.6 °F 44.6 °F 72% 29.90 in 10.0 mi Calm Calm - N/A   Overcast
4:35 AM 53.6 °F 44.6 °F 72% 29.90 in 10.0 mi NE 3.5 mph - N/A   Overcast
4:55 AM 53.6 °F 44.6 °F 72% 29.89 in 10.0 mi ENE 4.6 mph - N/A   Overcast
5:15 AM 53.6 °F 44.6 °F 72% 29.89 in 10.0 mi Calm Calm - N/A   Overcast
5:35 AM 53.6 °F 44.6 °F 72% 29.91 in 10.0 mi ENE 4.6 mph - N/A   Overcast
5:55 AM 53.6 °F 44.6 °F 72% 29.91 in 10.0 mi NE 5.8 mph - N/A   Overcast
6:15 AM 51.8 °F 44.6 °F 76% 29.90 in 10.0 mi ENE 5.8 mph - N/A   Overcast
6:35 AM 51.8 °F 44.6 °F 76% 29.90 in 10.0 mi NE 9.2 mph - N/A   Overcast
6:55 AM 51.8 °F 44.6 °F 76% 29.92 in 9.0 mi East 4.6 mph - N/A   Overcast
7:15 AM 51.8 °F 44.6 °F 76% 29.94 in 9.0 mi East 3.5 mph - N/A   Overcast
7:35 AM 51.8 °F 46.4 °F 82% 29.93 in 9.0 mi East 4.6 mph - N/A   Overcast
7:55 AM 51.8 °F 46.4 °F 82% 29.94 in 9.0 mi NE 6.9 mph - N/A   Overcast
8:15 AM 51.8 °F 46.4 °F 82% 29.93 in 10.0 mi ENE 5.8 mph - N/A   Overcast
8:35 AM 51.8 °F 44.6 °F 76% 29.92 in 10.0 mi NE 5.8 mph - N/A   Overcast
8:45 AM 51.8 °F 44.6 °F 76% 29.93 in 10.0 mi East 4.6 mph - N/A   Overcast
8:55 AM 51.8 °F 44.6 °F 76% 29.92 in 10.0 mi ENE 5.8 mph - N/A   Overcast
9:15 AM 51.8 °F 44.6 °F 76% 29.93 in 10.0 mi East 3.5 mph - N/A   Overcast
9:35 AM 51.8 °F 44.6 °F 76% 29.92 in 10.0 mi East 3.5 mph - N/A   Overcast
9:55 AM 51.8 °F 44.6 °F 76% 29.92 in 10.0 mi ESE 5.8 mph - N/A   Overcast
10:15 AM 51.8 °F 44.6 °F 76% 29.91 in 10.0 mi ESE 9.2 mph - N/A   Overcast
10:35 AM 53.6 °F 44.6 °F 72% 29.91 in 10.0 mi East 5.8 mph - N/A   Overcast
10:55 AM 53.6 °F 44.6 °F 72% 29.91 in 10.0 mi East 3.5 mph - N/A   Overcast
11:15 AM 53.6 °F 46.4 °F 77% 29.91 in 10.0 mi ENE 5.8 mph - N/A   Overcast
11:35 AM 53.6 °F 46.4 °F 77% 29.90 in 10.0 mi ESE 8.1 mph - N/A   Overcast
11:50 AM 55.4 °F 46.4 °F 72% 29.89 in 10.0 mi East 5.8 mph - N/A   Overcast
11:55 AM 55.4 °F 46.4 °F 72% 29.89 in 10.0 mi SE 4.6 mph - N/A   Overcast
12:15 PM 55.4 °F 46.4 °F 72% 29.88 in 10.0 mi East 4.6 mph - N/A   Overcast
12:35 PM 55.4 °F 46.4 °F 72% 29.87 in 10.0 mi East 5.8 mph - N/A   Overcast
12:55 PM 57.2 °F 48.2 °F 72% 29.85 in 10.0 mi East 6.9 mph - N/A   Overcast
1:15 PM 55.4 °F 48.2 °F 77% 29.86 in 10.0 mi SE 10.4 mph - N/A   Overcast
1:35 PM 57.2 °F 48.2 °F 72% 29.83 in 10.0 mi East 3.5 mph - N/A   Overcast
1:55 PM 57.2 °F 50.0 °F 77% 29.82 in 10.0 mi SE 8.1 mph - N/A   Overcast
2:15 PM 57.2 °F 50.0 °F 77% 29.79 in 10.0 mi SE 15.0 mph - N/A   Mostly Cloudy
2:55 PM 57.2 °F 50.0 °F 77% 29.79 in 10.0 mi ESE 6.9 mph - N/A   Mostly Cloudy
3:15 PM 59.0 °F 50.0 °F 72% 29.78 in 10.0 mi ESE 4.6 mph - N/A   Mostly Cloudy
3:35 PM 59.0 °F 50.0 °F 72% 29.78 in 10.0 mi ESE 6.9 mph - N/A   Mostly Cloudy
3:55 PM 60.8 °F 51.8 °F 72% 29.75 in 10.0 mi ESE 6.9 mph - N/A   Mostly Cloudy
4:15 PM 60.8 °F 51.8 °F 72% 29.72 in 10.0 mi ESE 10.4 mph - N/A   Clear
4:35 PM 60.8 °F 51.8 °F 72% 29.73 in 10.0 mi SE 9.2 mph - N/A   Clear
4:55 PM 60.8 °F 51.8 °F 72% 29.73 in 10.0 mi Calm Calm - N/A   Partly Cloudy
5:15 PM 60.8 °F 51.8 °F 72% 29.73 in 10.0 mi Calm Calm - N/A   Scattered Clouds
5:35 PM 60.8 °F 51.8 °F 72% 29.72 in 10.0 mi East 3.5 mph - N/A   Clear
5:55 PM 60.8 °F 51.8 °F 72% 29.71 in 10.0 mi East 3.5 mph - N/A   Clear
6:15 PM 60.8 °F 51.8 °F 72% 29.69 in 10.0 mi East 5.8 mph - N/A   Clear
6:35 PM 60.8 °F 51.8 °F 72% 29.70 in 10.0 mi East 5.8 mph - N/A   Clear
6:55 PM 60.8 °F 51.8 °F 72% 29.70 in 10.0 mi ESE 4.6 mph - N/A   Clear
7:15 PM 59.0 °F 51.8 °F 77% 29.69 in 10.0 mi SE 4.6 mph - N/A   Clear
7:35 PM 57.2 °F 51.8 °F 82% 29.69 in 10.0 mi Calm Calm - N/A   Clear
7:55 PM 57.2 °F 51.8 °F 82% 29.69 in 10.0 mi Calm Calm - N/A   Clear
8:15 PM 57.2 °F 51.8 °F 82% 29.69 in 10.0 mi Calm Calm - N/A   Partly Cloudy
8:35 PM 55.4 °F 51.8 °F 88% 29.68 in 10.0 mi Calm Calm - N/A   Partly Cloudy
8:55 PM 53.6 °F 51.8 °F 94% 29.69 in 10.0 mi NNW 3.5 mph - N/A   Clear
9:15 PM 55.4 °F 51.8 °F 88% 29.70 in 10.0 mi Calm Calm - N/A   Clear
9:35 PM 55.4 °F 51.8 °F 88% 29.73 in 10.0 mi North 6.9 mph - N/A   Partly Cloudy
9:55 PM 55.4 °F 51.8 °F 88% 29.73 in 10.0 mi NNE 4.6 mph - N/A   Mostly Cloudy
10:15 PM 55.4 °F 50.0 °F 82% 29.73 in 10.0 mi NE 5.8 mph - N/A   Overcast
10:35 PM 55.4 °F 51.8 °F 88% 29.73 in 10.0 mi NNE 4.6 mph - N/A   Overcast
10:55 PM 53.6 °F 51.8 °F 94% 29.74 in 8.0 mi NNE 4.6 mph - N/A   Overcast
11:15 PM 53.6 °F 51.8 °F 94% 29.75 in 5.0 mi SE 4.6 mph - N/A   Overcast
11:35 PM 53.6 °F 51.8 °F 94% 29.71 in 8.0 mi SE 9.2 mph - N/A   Overcast
11:55 PM 51.8 °F 50.0 °F 94% 29.72 in 9.0 mi South 5.8 mph - N/A   Overcast